SCP
-0 0 -0 -0 -0 -0 -0 -0 -0 -0 0 0 0 0 -0 -0 -0 -0 -0 -0 -0 -0 -0 -0 -0 0 0 0 0 0 0 0 0 0 0 0 0 0 0 0 0 0 0
-0 -0 -0 -0 -0 -0 -0 -0 -0 -0 0 0 0 0 0 0 0 -0 -0 -0 -0 -0 -0 -0 -0 -0 -0 0 0 0 0 0 0 0 0 0 -0 0 -0 -0 0 -0 0
-0 -0 -0 -0 -0 -0 -0 -0 -0 -0 0 0 -0 -0 -0 -0 -0 -0 -0 -0 -0 -0 -0 -0 -0 -0 -0 -0 0 0 0 0 0 0 0 0 -0 -0 0 -0 -0 0 0
-0 0 0 -0 -0 -0 -0 -0 -0 -0 0 0 0 -0 -0 -0 -0 -0 -0 -0 -0 -0 -0 -0 -0 -0 -0 -0 -0 0 0 0 0 0 0 0 -0 0 0 -0 -0 0 0
-0 -0 -0 -0 -0 -0 -0 -0 -0 -0 0 -0 -0 -0 -0 -0 -0 -0 -0 -0 -0 -0 -0 -0 -0 -0 -0 -0 -0 0 0 0 0 0 0 0 -0 0 0 0 -0 -0 0
-0 -0 -0 -0 -0 -0 -0 -0 -0 0 -0 0 0 0 0 -0 -0 -0 -0 -0 -0 -0 -0 -0 -0 -0 -0 -0 -0 0 0 0 0 0 0 0 0 0 0 0 -0 -0 0
-0 -0 -0 -0 -0 -0 -0 -0 0 -0 -0 0 0 0 0 0 -0 -0 -0 -0 -0 -0 -0 -0 -0 -0 -0 -0 -0 0 0 0 0 0 0 0 0 0 0 0 0 0 0
-0 -0 0 -0 -0 -0 -0 0 0 0 0 0 0 0 0 0 0 -0 -0 -0 -0 -0 -0 -0 -0 -0 -0 -0 -0 -0 0 0 0 0 0 0 0 0 0 0 0 0 0
0 -0 0 0 -0 -0 -0 0 0 0 0 0 0 1 0 1 0 0 0 -0 -0 -0 0 0 -0 -0 -0 -0 -0 0 0 0 0 0 0 0 0 0 0 0 0 0 0
0 0 0 0 0 0 0 0 0 0 0 0 0 1 0 0 0 -0 0 0 0 0 0 0 0 0 -0 -0 -0 0 0 0 0 0 0 0 0 0 0 0 0 0 -0
0 0 0 0 0 0 0 0 0 0 0 0 0 0 0 0 0 0 -0 0 0 0 0 0 0 0 0 0 0 0 0 0 0 0 0 0 0 0 0 0 0 0 0
0 0 0 0 0 0 0 0 1 0 0 0 0 0 0 0 0 0 0 0 0 0 0 0 0 0 0 0 -0 0 0 0 0 0 0 0 0 0 0 0 0 0 0
0 0 0 0 0 0 0 1 0 0 0 0 0 0 0 0 0 0 0 0 0 0 0 0 0 0 0 0 0 0 0 0 0 0 0 0 0 0 0 0 0 0 0
0 0 0 0 0 0 1 1 0 0 0 0 0 0 -0 0 0 0 0 0 0 0 0 0 0 0 0 0 0 0 0 0 0 0 0 0 1 0 0 0 0 0 0
0 -0 0 0 0 0 1 0 0 0 0 0 0 -0 0 0 0 0 0 0 0 0 0 0 0 0 0 0 0 0 0 0 -0 0 0 0 0 0 0 0 0 0 0
0 0 0 0 1 0 0 0 0 0 0 0 0 0 0 0 0 0 0 0 0 0 0 0 0 0 0 0 0 0 0 0 0 0 0 0 0 0 1 0 0 0 0
-0 0 0 1 1 1 0 0 0 0 0 0 0 0 0 0 0 0 0 0 0 0 0 0 0 0 0 0 0 0 0 0 0 0 0 0 0 0 0 0 0 0 0
-0 0 0 1 1 1 0 0 0 0 0 0 0 0 0 0 0 0 0 0 0 0 0 0 0 0 0 0 0 0 0 0 0 0 0 0 0 0 0 1 0 0 1
0 -0 0 0 0 0 0 0 0 0 0 0 0 0 0 0 0 0 0 0 0 0 0 0 0 0 0 0 0 0 0 0 0 0 0 0 0 0 0 1 0 1 1
0 0 0 0 0 0 0 0 0 0 0 0 0 0 0 0 0 0 0 0 0 0 0 0 0 0 0 0 0 0 0 0 0 0 0 0 0 0 0 0 0 0 0
0 0 0 0 0 0 0 0 0 0 0 0 0 0 0 0 0 0 0 0 0 0 0 0 0 0 0 0 0 0 0 0 0 0 0 0 0 0 0 0 0 0 0
0 -0 -0 0 0 0 0 0 1 0 0 0 0 0 0 0 0 0 0 0 0 0 0 0 0 0 0 0 0 0 0 0 0 0 0 0 0 0 0 0 0 0 0
0 0 -0 -0 0 1 1 0 0 1 0 0 0 0 0 0 0 0 0 0 0 0 0 0 0 0 0 0 0 0 0 0 0 0 0 0 0 0 0 0 0 0 0
0 -0 0 -0 0 0 -0 0 1 1 1 0 0 0 0 0 0 0 0 0 0 0 0 0 0 0 0 0 0 0 0 0 0 0 0 0 0 0 0 0 0 0 0
-0 -0 0 -0 0 0 -0 1 1 1 0 0 0 0 0 0 0 0 0 0 0 0 0 0 0 0 0 0 0 0 0 0 0 0 0 0 0 0 0 0 0 0 0
-0 -0 -0 -0 0 0 0 1 1 1 0 0 0 0 0 0 0 0 0 0 0 0 0 0 0 0 0 0 0 0 0 0 0 0 0 0 0 0 0 0 0 0 0
Wind_Speed_500mb
44 35 30 27 26 24 23 23 22 21 23 24 25 27 28 30 32 32 33 34 34 35 34 33 32 31 28 26 23 20 16 13 9 7 9 12 17 18 22 25 23 19 16
44 37 32 28 26 24 22 20 19 20 21 21 22 24 26 27 30 32 34 35 37 38 37 36 35 34 32 29 26 23 19 15 11 9 7 8 8 10 14 22 20 17 15
39 36 34 29 25 23 21 19 17 17 17 19 21 22 24 25 28 30 32 34 34 35 35 35 34 34 33 30 27 23 21 20 17 17 11 7 8 6 3 14 14 14 14
38 34 32 28 24 21 19 16 16 15 15 16 19 20 22 24 26 27 29 31 34 36 38 37 38 40 38 34 28 23 21 21 22 17 6 7 15 15 7 8 10 9 10
31 30 27 25 23 21 17 14 13 13 13 14 15 16 18 20 20 21 25 28 32 35 39 40 42 43 43 37 33 25 20 19 21 17 6 8 12 7 13 10 11 4 8
22 24 23 23 22 21 18 15 13 11 12 12 11 13 15 17 16 16 21 26 28 33 38 36 44 48 44 38 30 27 26 27 26 19 12 10 11 14 11 8 5 5 4
32 25 20 21 21 19 15 13 12 11 10 10 10 14 16 15 14 13 14 23 25 26 30 31 36 46 40 30 28 28 26 30 29 29 17 8 11 9 12 13 9 5 5
18 19 20 20 18 16 13 11 12 14 11 12 14 16 16 13 12 14 12 15 21 22 23 26 27 36 38 25 27 28 25 17 28 27 15 9 7 11 15 16 10 14 9
18 7 7 15 16 16 15 14 15 13 12 13 19 22 22 19 11 7 9 11 14 18 20 25 25 29 41 34 28 28 23 10 25 23 18 16 13 9 12 10 11 12 14
22 10 3 15 16 17 17 19 16 15 14 13 13 16 17 19 13 9 2 9 8 12 15 23 27 33 40 45 33 30 27 21 25 27 21 15 10 15 18 18 17 15 15
30 21 13 17 19 16 22 21 21 19 11 11 17 17 20 17 15 10 7 6 5 12 18 26 35 40 40 51 39 38 39 38 33 35 29 32 19 24 25 25 21 19 18
37 27 22 19 17 19 26 25 20 21 10 25 25 35 27 16 16 16 14 12 12 19 26 36 39 43 43 53 36 35 37 37 30 22 26 31 31 31 31 27 21 18 22
34 32 26 21 24 22 23 24 20 24 20 10 8 31 36 20 16 13 14 17 21 25 33 33 44 45 46 54 43 42 40 36 35 29 32 27 28 35 36 28 21 27 27
40 39 34 28 30 27 16 20 20 21 20 16 19 19 40 41 19 17 21 25 30 31 32 44 46 47 50 47 44 46 47 41 35 37 35 31 24 31 37 34 40 33 31
22 39 38 24 34 30 14 20 19 20 18 18 10 27 35 28 22 22 28 29 28 27 37 47 45 49 48 43 44 49 51 51 51 48 45 40 24 29 46 49 45 34 29
39 42 37 31 31 25 12 15 20 23 17 18 16 21 25 20 21 30 28 24 32 37 44 47 48 49 46 46 53 56 59 62 62 35 46 46 39 31 32 51 53 37 29
64 62 50 25 30 18 17 15 18 15 12 14 15 24 26 27 29 34 28 38 35 42 45 47 47 50 49 49 60 63 59 43 39 41 33 36 38 36 35 39 46 43 35
101 87 36 25 12 21 21 15 13 9 6 4 11 21 27 31 32 39 36 34 36 41 44 46 46 48 46 53 56 48 45 50 55 46 49 37 30 27 30 33 41 41 38
35 17 31 14 15 6 7 13 17 13 9 5 9 15 32 38 39 42 38 39 40 43 48 45 46 47 42 57 50 47 50 54 49 38 39 49 33 25 24 22 34 38 31
9 42 8 5 19 22 13 12 16 13 15 18 28 32 34 35 39 40 40 42 44 46 43 46 53 49 51 61 55 46 37 32 32 15 21 32 38 19 18 26 28 39 34
9 28 14 23 6 22 33 20 19 12 14 22 22 30 37 33 35 37 42 43 48 44 45 54 55 48 53 60 48 48 45 29 22 2 15 15 17 22 21 30 34 27 34
22 31 17 8 9 20 22 24 23 19 18 21 24 32 28 29 34 37 44 46 46 44 51 48 44 46 55 42 39 44 21 33 20 18 16 6 9 6 14 15 13 26 30
20 12 25 17 13 6 16 26 28 23 24 25 28 24 21 21 26 36 39 39 41 44 42 42 41 46 43 32 34 32 13 8 34 22 11 7 12 3 5 10 23 27 31
9 21 17 5 27 17 5 19 23 22 32 35 35 26 27 32 25 27 30 33 40 43 44 41 46 42 35 38 38 36 29 31 15 27 19 23 16 20 15 7 12 19 25
7 5 15 28 21 8 12 18 30 22 30 36 34 35 32 39 34 43 48 45 45 49 48 48 45 43 39 39 34 32 33 30 26 24 42 27 21 22 26 25 24 13 7
10 11 21 23 15 18 19 25 28 34 39 43 44 29 33 36 45 43 47 50 44 40 44 42 36 36 40 37 33 32 28 28 32 25 26 37 35 25 21 24 20 22 20
Wind_Direction_500mb
170 157 155 150 141 133 125 117 109 102 94 90 86 85 83 81 80 76 72 68 65 59 52 45 38 32 26 22 21 22 27 36 24 19 43 46 47 51 56 53 46 49 69
163 160 158 156 146 139 130 118 111 105 103 100 95 89 88 86 82 77 71 65 59 53 48 44 38 30 24 22 20 19 23 21 5 347 14 39 16 41 55 63 43 48 63
164 162 162 158 150 143 135 126 117 109 105 101 96 92 88 88 83 77 69 62 54 47 40 33 28 24 19 15 13 14 16 16 7 1 7 342 296 291 71 84 62 32 50
164 165 163 160 155 148 141 134 125 118 110 101 98 96 93 94 90 79 67 55 44 35 27 19 17 15 12 7 5 4 9 14 7 6 23 330 335 213 180 105 86 37 28
166 165 164 163 162 158 150 142 135 125 117 112 109 109 107 102 94 82 66 52 41 34 23 23 26 17 10 3 357 354 6 16 3 4 337 350 28 162 287 179 120 93 340
178 168 173 172 170 167 161 154 144 136 132 129 128 127 118 104 90 72 64 44 39 27 26 28 24 16 13 12 15 29 24 3 349 349 336 335 335 314 257 200 149 146 278
156 160 175 181 175 172 170 162 149 145 147 156 157 144 129 102 74 62 61 37 31 25 22 18 16 16 18 23 13 7 357 355 359 8 341 289 312 284 238 234 219 219 264
171 161 178 179 182 177 176 167 161 166 167 174 168 154 138 119 114 76 43 25 21 18 17 9 5 9 9 356 346 342 342 346 338 2 5 330 331 279 226 218 226 239 254
193 165 167 188 189 191 184 178 181 182 185 179 177 178 171 166 147 106 58 6 9 8 1 353 348 353 351 343 318 320 322 313 336 347 1 3 6 278 259 248 256 260 263
202 194 170 194 195 198 186 186 189 191 194 203 215 204 191 188 174 159 15 353 343 353 326 328 332 329 327 339 319 309 306 298 309 328 330 345 275 269 290 285 281 277 301
207 199 204 176 180 184 190 194 200 198 193 259 239 234 222 216 221 211 220 283 296 298 296 319 317 328 314 327 314 306 300 297 289 290 318 320 276 267 262 268 260 267 280
210 206 219 193 179 185 199 212 232 205 252 304 277 273 230 201 212 219 223 213 235 280 296 310 314 322 314 319 316 313 307 296 283 279 285 306 275 260 253 249 251 272 288
225 214 214 202 193 202 204 229 239 235 283 307 279 259 208 218 222 235 235 238 270 274 289 302 316 318 314 316 311 313 312 297 280 273 262 294 282 256 249 245 270 291 292
231 225 217 200 203 200 210 216 232 244 273 278 271 233 219 233 238 240 262 280 280 283 298 318 318 315 309 310 314 314 312 306 295 271 263 277 289 257 255 251 282 282 285
205 211 194 202 207 207 228 221 227 245 258 261 239 178 187 203 229 258 274 279 300 306 316 322 314 311 316 316 315 311 307 303 289 280 265 262 269 267 253 258 272 267 269
198 214 228 213 226 241 239 221 239 239 218 220 195 192 205 229 240 269 289 299 318 319 321 323 319 321 323 314 312 307 302 302 289 290 267 263 256 257 257 251 259 265 261
226 237 235 210 210 239 260 238 207 194 187 183 198 223 232 243 252 279 285 311 314 318 322 321 323 323 316 311 311 306 305 311 292 282 273 264 258 255 259 250 243 247 242
219 273 188 187 215 250 272 249 218 217 194 213 305 256 251 270 262 285 295 304 299 302 306 310 318 312 311 310 314 312 307 303 304 296 272 261 255 258 254 247 233 230 234
309 114 137 192 246 263 256 229 237 253 274 285 314 278 283 273 267 277 290 294 286 290 299 310 308 311 306 320 316 307 304 307 310 300 294 259 251 267 252 238 228 219 229
47 353 54 350 319 307 289 228 228 251 268 291 291 290 283 272 261 269 272 271 274 287 302 301 307 309 312 323 313 311 318 330 328 323 344 273 253 263 253 213 213 217 219
36 175 156 189 207 314 305 253 236 285 287 302 290 291 290 278 272 272 276 281 286 295 298 299 301 302 310 319 310 311 319 326 338 59 3 78 174 178 186 197 191 198 207
71 58 54 126 207 273 279 262 286 291 291 300 291 290 275 274 273 286 288 290 290 283 286 289 292 301 311 308 310 316 318 332 322 326 317 9 112 170 184 190 193 235 251
46 23 150 169 199 261 246 273 290 294 302 293 297 292 277 276 275 274 278 280 281 286 289 293 301 309 310 303 307 301 304 287 311 307 342 257 266 310 352 262 248 257 272
280 151 128 24 262 340 144 275 278 292 299 304 308 285 286 293 288 290 295 296 299 303 303 307 312 319 301 305 301 295 279 278 276 295 270 315 295 297 296 312 338 251 261
40 327 307 324 293 292 325 288 282 294 304 305 296 298 286 290 299 308 311 317 314 311 312 315 318 312 303 301 298 299 290 283 263 265 287 293 290 285 304 298 290 284 281
344 307 293 308 319 314 318 303 303 298 295 296 296 296 300 310 320 320 316 316 315 314 311 306 308 309 306 300 297 294 279 276 284 276 268 280 294 303 280 284 271 275 278
Wind_Speed_850mb
44 35 30 27 26 24 23 23 22 21 23 24 25 27 28 30 32 32 33 34 34 35 34 33 32 31 28 26 23 20 16 13 9 7 9 12 17 18 22 25 23 19 16
44 37 32 28 26 24 22 20 19 20 21 21 22 24 26 27 30 32 34 35 37 38 37 36 35 34 32 29 26 23 19 15 11 9 7 8 8 10 14 22 20 17 15
39 36 34 29 25 23 21 19 17 17 17 19 21 22 24 25 28 30 32 34 34 35 35 35 34 34 33 30 27 23 21 20 17 17 11 7 8 6 3 14 14 14 14
38 34 32 28 24 21 19 16 16 15 15 16 19 20 22 24 26 27 29 31 34 36 38 37 38 40 38 34 28 23 21 21 22 17 6 7 15 15 7 8 10 9 10
31 30 27 25 23 21 17 14 13 13 13 14 15 16 18 20 20 21 25 28 32 35 39 40 42 43 43 37 33 25 20 19 21 17 6 8 12 7 13 10 11 4 8
22 24 23 23 22 21 18 15 13 11 12 12 11 13 15 17 16 16 21 26 28 33 38 36 44 48 44 38 30 27 26 27 26 19 12 10 11 14 11 8 5 5 4
32 25 20 21 21 19 15 13 12 11 10 10 10 14 16 15 14 13 14 23 25 26 30 31 36 46 40 30 28 28 26 30 29 29 17 8 11 9 12 13 9 5 5
18 19 20 20 18 16 13 11 12 14 11 12 14 16 16 13 12 14 12 15 21 22 23 26 27 36 38 25 27 28 25 17 28 27 15 9 7 11 15 16 10 14 9
18 7 7 15 16 16 15 14 15 13 12 13 19 22 22 19 11 7 9 11 14 18 20 25 25 29 41 34 28 28 23 10 25 23 18 16 13 9 12 10 11 12 14
22 10 3 15 16 17 17 19 16 15 14 13 13 16 17 19 13 9 2 9 8 12 15 23 27 33 40 45 33 30 27 21 25 27 21 15 10 15 18 18 17 15 15
30 21 13 17 19 16 22 21 21 19 11 11 17 17 20 17 15 10 7 6 5 12 18 26 35 40 40 51 39 38 39 38 33 35 29 32 19 24 25 25 21 19 18
37 27 22 19 17 19 26 25 20 21 10 25 25 35 27 16 16 16 14 12 12 19 26 36 39 43 43 53 36 35 37 37 30 22 26 31 31 31 31 27 21 18 22
34 32 26 21 24 22 23 24 20 24 20 10 8 31 36 20 16 13 14 17 21 25 33 33 44 45 46 54 43 42 40 36 35 29 32 27 28 35 36 28 21 27 27
40 39 34 28 30 27 16 20 20 21 20 16 19 19 40 41 19 17 21 25 30 31 32 44 46 47 50 47 44 46 47 41 35 37 35 31 24 31 37 34 40 33 31
22 39 38 24 34 30 14 20 19 20 18 18 10 27 35 28 22 22 28 29 28 27 37 47 45 49 48 43 44 49 51 51 51 48 45 40 24 29 46 49 45 34 29
39 42 37 31 31 25 12 15 20 23 17 18 16 21 25 20 21 30 28 24 32 37 44 47 48 49 46 46 53 56 59 62 62 35 46 46 39 31 32 51 53 37 29
64 62 50 25 30 18 17 15 18 15 12 14 15 24 26 27 29 34 28 38 35 42 45 47 47 50 49 49 60 63 59 43 39 41 33 36 38 36 35 39 46 43 35
101 87 36 25 12 21 21 15 13 9 6 4 11 21 27 31 32 39 36 34 36 41 44 46 46 48 46 53 56 48 45 50 55 46 49 37 30 27 30 33 41 41 38
35 17 31 14 15 6 7 13 17 13 9 5 9 15 32 38 39 42 38 39 40 43 48 45 46 47 42 57 50 47 50 54 49 38 39 49 33 25 24 22 34 38 31
9 42 8 5 19 22 13 12 16 13 15 18 28 32 34 35 39 40 40 42 44 46 43 46 53 49 51 61 55 46 37 32 32 15 21 32 38 19 18 26 28 39 34
9 28 14 23 6 22 33 20 19 12 14 22 22 30 37 33 35 37 42 43 48 44 45 54 55 48 53 60 48 48 45 29 22 2 15 15 17 22 21 30 34 27 34
22 31 17 8 9 20 22 24 23 19 18 21 24 32 28 29 34 37 44 46 46 44 51 48 44 46 55 42 39 44 21 33 20 18 16 6 9 6 14 15 13 26 30
20 12 25 17 13 6 16 26 28 23 24 25 28 24 21 21 26 36 39 39 41 44 42 42 41 46 43 32 34 32 13 8 34 22 11 7 12 3 5 10 23 27 31
9 21 17 5 27 17 5 19 23 22 32 35 35 26 27 32 25 27 30 33 40 43 44 41 46 42 35 38 38 36 29 31 15 27 19 23 16 20 15 7 12 19 25
7 5 15 28 21 8 12 18 30 22 30 36 34 35 32 39 34 43 48 45 45 49 48 48 45 43 39 39 34 32 33 30 26 24 42 27 21 22 26 25 24 13 7
10 11 21 23 15 18 19 25 28 34 39 43 44 29 33 36 45 43 47 50 44 40 44 42 36 36 40 37 33 32 28 28 32 25 26 37 35 25 21 24 20 22 20
Wind_Direction_850mb
170 157 155 150 141 133 125 117 109 102 94 90 86 85 83 81 80 76 72 68 65 59 52 45 38 32 26 22 21 22 27 36 24 19 43 46 47 51 56 53 46 49 69
163 160 158 156 146 139 130 118 111 105 103 100 95 89 88 86 82 77 71 65 59 53 48 44 38 30 24 22 20 19 23 21 5 347 14 39 16 41 55 63 43 48 63
164 162 162 158 150 143 135 126 117 109 105 101 96 92 88 88 83 77 69 62 54 47 40 33 28 24 19 15 13 14 16 16 7 1 7 342 296 291 71 84 62 32 50
164 165 163 160 155 148 141 134 125 118 110 101 98 96 93 94 90 79 67 55 44 35 27 19 17 15 12 7 5 4 9 14 7 6 23 330 335 213 180 105 86 37 28
166 165 164 163 162 158 150 142 135 125 117 112 109 109 107 102 94 82 66 52 41 34 23 23 26 17 10 3 357 354 6 16 3 4 337 350 28 162 287 179 120 93 340
178 168 173 172 170 167 161 154 144 136 132 129 128 127 118 104 90 72 64 44 39 27 26 28 24 16 13 12 15 29 24 3 349 349 336 335 335 314 257 200 149 146 278
156 160 175 181 175 172 170 162 149 145 147 156 157 144 129 102 74 62 61 37 31 25 22 18 16 16 18 23 13 7 357 355 359 8 341 289 312 284 238 234 219 219 264
171 161 178 179 182 177 176 167 161 166 167 174 168 154 138 119 114 76 43 25 21 18 17 9 5 9 9 356 346 342 342 346 338 2 5 330 331 279 226 218 226 239 254
193 165 167 188 189 191 184 178 181 182 185 179 177 178 171 166 147 106 58 6 9 8 1 353 348 353 351 343 318 320 322 313 336 347 1 3 6 278 259 248 256 260 263
202 194 170 194 195 198 186 186 189 191 194 203 215 204 191 188 174 159 15 353 343 353 326 328 332 329 327 339 319 309 306 298 309 328 330 345 275 269 290 285 281 277 301
207 199 204 176 180 184 190 194 200 198 193 259 239 234 222 216 221 211 220 283 296 298 296 319 317 328 314 327 314 306 300 297 289 290 318 320 276 267 262 268 260 267 280
210 206 219 193 179 185 199 212 232 205 252 304 277 273 230 201 212 219 223 213 235 280 296 310 314 322 314 319 316 313 307 296 283 279 285 306 275 260 253 249 251 272 288
225 214 214 202 193 202 204 229 239 235 283 307 279 259 208 218 222 235 235 238 270 274 289 302 316 318 314 316 311 313 312 297 280 273 262 294 282 256 249 245 270 291 292
231 225 217 200 203 200 210 216 232 244 273 278 271 233 219 233 238 240 262 280 280 283 298 318 318 315 309 310 314 314 312 306 295 271 263 277 289 257 255 251 282 282 285
205 211 194 202 207 207 228 221 227 245 258 261 239 178 187 203 229 258 274 279 300 306 316 322 314 311 316 316 315 311 307 303 289 280 265 262 269 267 253 258 272 267 269
198 214 228 213 226 241 239 221 239 239 218 220 195 192 205 229 240 269 289 299 318 319 321 323 319 321 323 314 312 307 302 302 289 290 267 263 256 257 257 251 259 265 261
226 237 235 210 210 239 260 238 207 194 187 183 198 223 232 243 252 279 285 311 314 318 322 321 323 323 316 311 311 306 305 311 292 282 273 264 258 255 259 250 243 247 242
219 273 188 187 215 250 272 249 218 217 194 213 305 256 251 270 262 285 295 304 299 302 306 310 318 312 311 310 314 312 307 303 304 296 272 261 255 258 254 247 233 230 234
309 114 137 192 246 263 256 229 237 253 274 285 314 278 283 273 267 277 290 294 286 290 299 310 308 311 306 320 316 307 304 307 310 300 294 259 251 267 252 238 228 219 229
47 353 54 350 319 307 289 228 228 251 268 291 291 290 283 272 261 269 272 271 274 287 302 301 307 309 312 323 313 311 318 330 328 323 344 273 253 263 253 213 213 217 219
36 175 156 189 207 314 305 253 236 285 287 302 290 291 290 278 272 272 276 281 286 295 298 299 301 302 310 319 310 311 319 326 338 59 3 78 174 178 186 197 191 198 207
71 58 54 126 207 273 279 262 286 291 291 300 291 290 275 274 273 286 288 290 290 283 286 289 292 301 311 308 310 316 318 332 322 326 317 9 112 170 184 190 193 235 251
46 23 150 169 199 261 246 273 290 294 302 293 297 292 277 276 275 274 278 280 281 286 289 293 301 309 310 303 307 301 304 287 311 307 342 257 266 310 352 262 248 257 272
280 151 128 24 262 340 144 275 278 292 299 304 308 285 286 293 288 290 295 296 299 303 303 307 312 319 301 305 301 295 279 278 276 295 270 315 295 297 296 312 338 251 261
40 327 307 324 293 292 325 288 282 294 304 305 296 298 286 290 299 308 311 317 314 311 312 315 318 312 303 301 298 299 290 283 263 265 287 293 290 285 304 298 290 284 281
344 307 293 308 319 314 318 303 303 298 295 296 296 296 300 310 320 320 316 316 315 314 311 306 308 309 306 300 297 294 279 276 284 276 268 280 294 303 280 284 271 275 278